SCP
-0 -0 -0 -0 -0 -0 -0 -0 -0 0 -0 -0 -0 -0 -0 -0 -0 0 0 0 0 0 0 0 0 0 0 0 0 0 0 0 0 0 0 0 0 0 0 0 0 0 0
-0 -0 -0 -0 -0 -0 -0 -0 -0 0 -0 -0 -0 0 0 -0 -0 -0 0 0 0 0 0 0 0 0 0 0 0 0 0 0 0 0 0 0 0 0 0 0 0 0 0
-0 -0 -0 -0 -0 -0 -0 -0 -0 -0 -0 0 -0 -0 0 -0 -0 -0 -0 -0 0 0 0 0 0 0 0 0 0 0 0 0 0 0 0 0 0 0 0 0 0 0 0
-0 -0 -0 -0 -0 -0 -0 -0 -0 -0 -0 -0 -0 -0 -0 0 0 -0 -0 -0 0 0 0 0 0 0 0 0 0 0 0 0 0 0 0 0 0 0 0 0 0 0 0
-0 -0 -0 -0 -0 -0 -0 -0 -0 -0 -0 -0 -0 0 0 -0 0 -0 -0 -0 -0 0 0 0 0 0 0 0 0 0 0 0 0 0 0 0 0 0 0 0 0 0 0
-0 -0 -0 -0 -0 -0 -0 -0 -0 -0 -0 -0 -0 0 0 0 -0 -0 -0 -0 0 0 0 -0 0 0 0 0 1 1 0 0 0 0 0 0 0 0 0 0 0 0 0
-0 -0 -0 0 -0 -0 -0 0 0 -0 0 0 0 0 0 0 0 0 0 0 0 0 0 0 0 0 0 1 1 1 1 1 0 0 0 0 0 0 0 0 0 0 0
-0 -0 -0 -0 -0 -0 -0 -0 0 -0 0 0 0 0 0 0 0 0 0 0 0 0 0 0 0 0 0 1 1 1 1 1 0 0 0 0 0 0 0 0 0 0 0
-0 -0 -0 -0 -0 -0 -0 -0 -0 0 0 -0 0 0 0 0 0 0 0 0 0 0 0 0 0 0 0 0 0 0 0 1 0 0 0 0 0 0 0 0 0 0 0
-0 -0 -0 -0 -0 -0 -0 0 0 -0 -0 -0 -0 -0 -0 -0 0 0 0 0 0 0 0 0 0 0 0 0 0 0 0 0 1 0 0 0 0 0 0 0 0 0 0
-0 -0 -0 -0 -0 -0 -0 -0 -0 0 0 0 0 0 0 0 0 0 0 0 0 0 0 0 0 0 0 0 0 0 0 0 0 0 0 0 0 0 0 0 0 0 0
0 0 -0 -0 -0 -0 -0 -0 0 0 0 0 0 0 0 0 0 0 0 0 0 0 0 0 0 0 0 0 0 0 0 0 0 0 0 0 0 0 0 0 0 0 0
-0 0 0 -0 -0 0 0 0 0 0 0 0 0 0 0 0 0 0 0 0 0 0 0 0 0 0 -0 0 0 0 0 0 0 0 0 0 0 0 0 0 0 0 0
0 0 0 -0 -0 -0 0 0 0 0 0 0 0 0 0 0 0 0 0 0 1 0 0 0 0 0 0 0 0 0 0 0 0 0 0 0 0 0 0 0 0 0 0
0 0 0 0 0 0 -0 -0 0 0 1 1 0 0 1 1 1 1 0 0 0 0 0 0 0 0 0 0 0 0 0 0 0 0 0 0 0 0 0 0 0 0 0
1 1 1 1 0 0 0 0 0 0 0 0 0 1 1 0 0 0 0 0 0 0 0 0 0 0 0 0 0 0 0 0 0 0 0 0 0 0 0 0 0 0 0
2 1 2 2 1 0 0 0 0 0 0 0 0 0 0 0 0 0 0 0 0 0 0 0 0 0 0 0 0 0 0 0 0 0 0 0 0 0 0 0 0 0 0
3 3 4 3 2 1 1 0 1 0 0 0 0 0 0 0 0 0 0 0 0 0 0 0 0 0 0 0 0 0 0 0 0 0 0 0 0 0 0 0 0 0 0
4 5 6 4 2 1 1 1 0 1 1 1 1 1 1 0 0 0 0 0 0 0 0 0 0 0 0 0 0 0 0 0 0 0 0 0 0 0 0 0 0 0 0
7 7 6 3 2 1 1 0 0 0 0 0 0 0 0 0 0 0 0 0 0 0 0 0 0 0 0 0 0 0 0 0 0 0 0 0 0 0 0 0 0 0 0
6 5 5 4 2 1 1 0 0 0 0 0 0 0 0 0 0 0 0 0 0 0 0 0 0 0 0 0 0 0 0 0 0 0 0 0 0 0 0 0 0 0 0
4 4 4 3 1 1 0 0 0 0 0 0 0 0 0 0 0 0 0 0 0 0 0 0 0 0 0 0 0 0 0 0 0 0 0 0 0 0 0 0 0 0 0
5 4 3 0 0 0 0 0 0 0 0 0 0 0 0 0 0 0 0 0 0 0 0 0 0 0 0 0 0 0 0 0 0 0 0 0 0 -0 0 0 0 0 0
5 2 1 0 0 0 0 0 0 0 0 0 0 0 0 0 0 0 0 0 0 0 0 0 0 0 0 0 0 0 0 0 0 0 0 0 0 0 0 0 0 0 0
1 1 0 0 0 0 0 0 0 0 0 0 0 0 0 0 0 0 0 0 0 0 0 0 0 0 0 0 0 0 0 0 0 0 0 0 0 0 0 -0 0 0 0
0 0 0 0 0 0 0 0 0 0 0 0 0 0 0 0 0 0 0 0 0 0 0 0 0 0 0 0 0 0 0 0 0 0 0 0 0 0 0 0 0 0 0
Wind_Speed_500mb
56 57 60 59 53 44 37 34 38 39 35 30 25 18 10 14 12 14 19 16 15 9 8 12 15 11 10 8 6 9 12 14 15 7 2 5 4 7 14 18 25 26 21
68 70 70 65 54 45 41 41 44 43 40 34 30 23 14 16 20 16 14 15 9 11 15 15 13 12 12 7 9 10 9 14 14 12 1 4 2 4 11 13 23 25 26
72 73 76 67 55 53 46 48 52 46 42 35 32 30 21 16 21 21 16 15 11 12 10 11 10 12 15 10 15 15 14 19 14 8 3 6 9 14 7 15 25 28 29
74 72 76 70 63 54 46 47 49 51 46 42 41 38 29 24 24 27 23 29 25 20 18 17 19 18 18 18 16 20 20 22 17 10 10 11 10 14 14 24 35 34 29
81 80 78 70 63 55 53 48 49 48 47 50 51 49 40 34 29 28 23 17 25 26 23 26 27 30 29 24 22 23 22 22 20 18 19 19 18 38 25 23 28 29 28
88 85 78 72 65 62 58 50 48 51 48 49 49 51 50 42 40 34 28 23 26 27 29 30 31 33 30 31 28 27 29 30 28 27 28 31 26 30 9 26 32 34 30
88 89 87 82 72 70 66 58 49 48 48 51 50 50 48 48 46 43 38 34 33 34 31 31 31 24 25 28 34 33 35 34 35 33 37 37 32 27 20 24 34 32 34
88 89 93 88 81 71 66 61 55 50 48 42 40 45 47 48 49 43 41 43 43 41 39 35 27 28 27 32 38 39 40 39 39 38 41 43 42 34 24 16 28 35 31
82 89 90 92 86 76 69 64 60 55 51 48 43 38 38 41 44 45 47 49 48 50 50 52 49 41 38 38 41 44 49 47 42 40 41 41 49 46 31 25 28 31 30
73 85 87 90 92 74 60 56 62 65 59 54 49 45 40 34 37 42 43 43 45 45 40 38 35 32 34 39 46 53 47 46 44 42 43 33 37 51 41 36 20 28 30
70 80 80 82 88 87 74 48 52 64 67 63 57 49 44 42 35 35 34 33 34 33 32 34 36 42 43 39 37 38 43 48 48 50 50 34 35 46 48 37 23 25 23
59 76 76 73 81 90 90 76 52 55 57 59 58 53 47 41 38 32 28 27 25 25 30 33 33 32 32 33 37 45 50 46 43 45 53 38 37 38 45 37 20 20 22
64 78 74 69 78 86 87 82 82 65 55 60 59 57 54 48 37 28 22 21 20 21 22 25 28 34 38 39 39 40 41 43 51 44 43 50 27 31 34 33 17 20 21
57 61 66 67 66 71 77 79 76 70 60 57 58 62 53 48 34 29 29 30 29 30 30 32 33 35 42 44 47 44 47 52 45 36 33 30 25 28 26 23 15 18 21
58 60 56 54 56 59 60 64 66 58 52 47 48 57 49 44 39 37 35 30 34 34 35 36 36 41 49 53 51 50 51 47 40 36 32 20 21 25 23 20 16 16 20
69 63 59 55 54 55 55 49 43 46 42 43 48 52 50 46 46 44 36 37 38 40 39 45 49 52 53 48 43 41 41 39 38 35 30 24 21 20 26 19 17 11 12
80 75 71 66 62 57 50 41 35 32 32 38 43 47 47 48 47 42 38 38 36 37 40 45 46 40 36 32 32 28 29 33 29 21 22 22 23 23 24 19 19 12 12
83 79 75 68 61 54 46 41 35 32 33 38 40 41 42 41 40 37 32 28 28 28 28 29 31 32 27 25 21 19 22 24 24 19 17 17 19 19 19 17 17 10 14
97 92 83 74 65 56 49 41 38 36 36 36 36 35 32 29 27 25 24 21 20 20 20 25 26 21 17 15 14 18 26 17 13 15 17 11 8 15 17 18 14 10 13
94 91 79 71 63 55 45 44 42 38 36 34 32 29 26 24 22 22 19 15 15 14 15 22 22 18 16 18 15 13 8 12 22 22 16 8 17 14 13 14 6 7 9
74 82 77 72 62 52 49 46 40 43 44 40 36 32 28 24 20 17 13 9 9 13 17 16 14 13 11 13 12 9 11 15 20 22 13 8 12 16 21 14 7 6 7
83 84 78 72 63 57 52 48 44 43 41 40 37 32 28 23 18 13 8 6 6 7 9 8 7 11 13 13 14 17 21 24 21 16 10 6 10 10 9 11 9 5 7
91 91 88 77 68 61 52 48 48 44 41 39 37 35 30 25 19 13 9 3 5 8 10 9 7 11 15 19 23 23 24 27 25 16 6 6 14 13 9 11 13 6 7
78 86 81 76 73 63 50 41 47 41 40 43 41 38 35 29 21 13 8 7 11 12 14 15 16 15 18 21 20 18 16 20 21 21 15 18 16 18 15 11 13 10 10
69 78 82 77 70 62 54 48 43 41 43 46 48 46 41 32 24 17 10 10 14 17 19 21 23 24 23 23 25 23 19 20 20 14 11 17 25 27 28 24 20 22 20
51 70 75 72 71 68 62 48 41 43 47 47 46 44 41 34 25 15 8 7 11 15 20 25 29 30 33 28 24 20 21 23 21 17 12 12 15 24 32 29 29 27 26
Wind_Direction_500mb
204 200 201 200 201 203 203 205 199 192 194 201 196 190 198 214 202 214 219 221 226 242 282 261 292 269 296 281 2 359 328 302 333 355 57 233 227 216 235 263 276 283 270
195 198 199 200 203 205 207 203 191 191 195 199 198 192 191 207 220 207 211 205 209 236 277 287 282 253 276 261 278 330 319 332 331 3 322 241 123 322 271 259 260 269 266
198 198 198 203 207 208 209 206 200 197 196 203 206 205 200 199 200 204 214 225 246 264 297 310 296 277 296 289 307 328 330 320 320 336 6 221 226 285 291 295 285 269 271
204 203 201 205 210 210 212 214 206 208 205 208 214 215 214 206 215 221 243 244 241 253 272 290 288 291 296 300 310 327 324 322 313 294 269 260 258 316 269 264 269 280 269
209 208 208 214 215 213 215 216 217 214 208 209 214 219 225 222 228 220 243 237 224 241 268 274 282 285 282 296 305 314 315 316 311 286 270 256 257 334 276 283 282 279 287
214 215 218 216 219 217 217 217 221 224 220 215 220 229 232 232 237 239 243 236 228 244 261 273 281 277 266 282 297 298 301 298 293 299 278 275 263 333 302 288 288 279 284
215 214 216 217 219 221 219 218 218 223 225 228 228 232 237 237 241 242 245 245 250 252 264 285 292 272 266 275 289 296 299 297 298 285 290 286 283 293 313 286 281 265 277
216 218 221 221 222 223 221 220 220 224 225 222 225 232 236 241 242 245 252 254 254 259 267 272 278 271 266 275 286 293 295 296 294 291 294 301 302 274 288 317 275 258 271
215 222 225 224 224 225 225 224 225 226 225 223 223 226 236 240 242 249 256 258 260 264 268 274 279 280 279 279 284 292 297 298 295 289 297 304 306 292 270 288 277 247 261
219 223 228 226 226 229 226 230 238 235 232 232 233 234 238 242 244 249 256 261 262 266 269 275 283 287 286 287 291 295 298 297 295 288 281 283 299 302 282 285 272 248 257
219 219 225 228 230 223 224 214 231 237 237 239 241 240 242 243 246 250 257 265 269 268 270 273 283 289 290 289 294 300 303 303 305 296 291 282 279 287 290 272 266 243 248
228 222 228 231 230 231 224 219 231 235 237 240 244 244 245 242 243 247 260 269 277 276 276 278 283 288 295 300 300 302 302 306 310 305 293 277 273 284 283 268 260 243 246
222 226 231 230 229 229 230 229 233 242 244 249 248 247 243 241 239 241 255 263 267 271 275 282 291 293 295 295 298 301 302 302 309 311 312 306 271 282 284 261 227 229 232
208 216 223 225 226 227 230 233 235 240 249 248 246 246 240 239 234 230 242 256 265 274 278 285 287 291 293 299 301 300 303 306 304 306 312 311 275 285 281 259 230 219 225
194 199 203 208 214 220 225 228 231 231 234 241 243 241 233 228 224 230 245 263 275 285 288 286 287 293 293 299 297 296 298 300 301 301 299 292 270 287 272 256 229 216 223
197 197 198 198 204 212 218 220 220 228 242 243 236 230 223 222 224 237 248 266 274 284 290 293 293 295 298 297 297 298 294 300 303 299 293 286 273 279 264 246 227 218 229
195 195 198 201 203 205 211 217 224 223 218 220 221 219 220 225 235 245 254 266 281 287 287 293 300 301 304 299 296 293 301 313 315 313 296 289 278 269 244 243 223 211 216
191 191 192 191 191 191 190 198 201 206 205 205 207 210 212 219 232 243 258 269 276 285 293 300 302 306 298 292 298 312 317 319 320 323 307 284 270 259 235 228 225 223 215
197 193 190 188 188 190 194 199 199 199 195 195 197 202 213 222 230 241 250 256 267 285 302 313 322 319 308 299 305 311 321 335 358 336 315 288 261 217 245 221 220 225 213
197 193 188 189 187 188 191 189 187 188 189 194 197 200 205 210 216 223 232 247 270 288 311 326 332 320 305 292 300 317 359 360 3 5 8 6 216 223 195 201 208 229 225
205 192 191 188 184 186 183 184 189 188 186 187 190 191 193 196 198 204 217 242 282 306 307 316 332 342 321 309 305 323 338 342 360 2 12 355 257 190 168 163 154 182 193
208 201 190 187 184 185 186 187 187 186 181 180 179 173 170 170 178 188 198 243 283 299 306 316 352 343 346 346 332 329 336 336 343 358 6 73 127 154 165 197 181 173 199
207 200 193 183 182 185 189 190 188 187 186 182 172 164 163 159 150 137 132 112 15 351 316 300 321 322 304 296 308 316 317 322 322 315 240 165 159 159 156 192 178 172 187
207 196 187 184 182 185 188 201 189 186 187 183 176 167 162 156 146 143 123 56 34 26 18 357 337 331 317 293 279 292 308 317 320 316 264 231 220 216 205 183 194 191 191
203 196 189 186 181 178 183 190 190 194 188 180 170 163 162 162 158 150 112 56 29 22 12 1 345 334 329 328 325 314 317 324 321 307 296 244 237 217 220 201 224 206 206
197 192 188 185 179 178 181 185 183 180 178 173 169 165 162 160 161 151 124 69 25 2 353 349 340 339 332 327 325 319 313 321 320 304 297 265 251 238 224 227 213 210 213
Wind_Speed_850mb
56 57 60 59 53 44 37 34 38 39 35 30 25 18 10 14 12 14 19 16 15 9 8 12 15 11 10 8 6 9 12 14 15 7 2 5 4 7 14 18 25 26 21
68 70 70 65 54 45 41 41 44 43 40 34 30 23 14 16 20 16 14 15 9 11 15 15 13 12 12 7 9 10 9 14 14 12 1 4 2 4 11 13 23 25 26
72 73 76 67 55 53 46 48 52 46 42 35 32 30 21 16 21 21 16 15 11 12 10 11 10 12 15 10 15 15 14 19 14 8 3 6 9 14 7 15 25 28 29
74 72 76 70 63 54 46 47 49 51 46 42 41 38 29 24 24 27 23 29 25 20 18 17 19 18 18 18 16 20 20 22 17 10 10 11 10 14 14 24 35 34 29
81 80 78 70 63 55 53 48 49 48 47 50 51 49 40 34 29 28 23 17 25 26 23 26 27 30 29 24 22 23 22 22 20 18 19 19 18 38 25 23 28 29 28
88 85 78 72 65 62 58 50 48 51 48 49 49 51 50 42 40 34 28 23 26 27 29 30 31 33 30 31 28 27 29 30 28 27 28 31 26 30 9 26 32 34 30
88 89 87 82 72 70 66 58 49 48 48 51 50 50 48 48 46 43 38 34 33 34 31 31 31 24 25 28 34 33 35 34 35 33 37 37 32 27 20 24 34 32 34
88 89 93 88 81 71 66 61 55 50 48 42 40 45 47 48 49 43 41 43 43 41 39 35 27 28 27 32 38 39 40 39 39 38 41 43 42 34 24 16 28 35 31
82 89 90 92 86 76 69 64 60 55 51 48 43 38 38 41 44 45 47 49 48 50 50 52 49 41 38 38 41 44 49 47 42 40 41 41 49 46 31 25 28 31 30
73 85 87 90 92 74 60 56 62 65 59 54 49 45 40 34 37 42 43 43 45 45 40 38 35 32 34 39 46 53 47 46 44 42 43 33 37 51 41 36 20 28 30
70 80 80 82 88 87 74 48 52 64 67 63 57 49 44 42 35 35 34 33 34 33 32 34 36 42 43 39 37 38 43 48 48 50 50 34 35 46 48 37 23 25 23
59 76 76 73 81 90 90 76 52 55 57 59 58 53 47 41 38 32 28 27 25 25 30 33 33 32 32 33 37 45 50 46 43 45 53 38 37 38 45 37 20 20 22
64 78 74 69 78 86 87 82 82 65 55 60 59 57 54 48 37 28 22 21 20 21 22 25 28 34 38 39 39 40 41 43 51 44 43 50 27 31 34 33 17 20 21
57 61 66 67 66 71 77 79 76 70 60 57 58 62 53 48 34 29 29 30 29 30 30 32 33 35 42 44 47 44 47 52 45 36 33 30 25 28 26 23 15 18 21
58 60 56 54 56 59 60 64 66 58 52 47 48 57 49 44 39 37 35 30 34 34 35 36 36 41 49 53 51 50 51 47 40 36 32 20 21 25 23 20 16 16 20
69 63 59 55 54 55 55 49 43 46 42 43 48 52 50 46 46 44 36 37 38 40 39 45 49 52 53 48 43 41 41 39 38 35 30 24 21 20 26 19 17 11 12
80 75 71 66 62 57 50 41 35 32 32 38 43 47 47 48 47 42 38 38 36 37 40 45 46 40 36 32 32 28 29 33 29 21 22 22 23 23 24 19 19 12 12
83 79 75 68 61 54 46 41 35 32 33 38 40 41 42 41 40 37 32 28 28 28 28 29 31 32 27 25 21 19 22 24 24 19 17 17 19 19 19 17 17 10 14
97 92 83 74 65 56 49 41 38 36 36 36 36 35 32 29 27 25 24 21 20 20 20 25 26 21 17 15 14 18 26 17 13 15 17 11 8 15 17 18 14 10 13
94 91 79 71 63 55 45 44 42 38 36 34 32 29 26 24 22 22 19 15 15 14 15 22 22 18 16 18 15 13 8 12 22 22 16 8 17 14 13 14 6 7 9
74 82 77 72 62 52 49 46 40 43 44 40 36 32 28 24 20 17 13 9 9 13 17 16 14 13 11 13 12 9 11 15 20 22 13 8 12 16 21 14 7 6 7
83 84 78 72 63 57 52 48 44 43 41 40 37 32 28 23 18 13 8 6 6 7 9 8 7 11 13 13 14 17 21 24 21 16 10 6 10 10 9 11 9 5 7
91 91 88 77 68 61 52 48 48 44 41 39 37 35 30 25 19 13 9 3 5 8 10 9 7 11 15 19 23 23 24 27 25 16 6 6 14 13 9 11 13 6 7
78 86 81 76 73 63 50 41 47 41 40 43 41 38 35 29 21 13 8 7 11 12 14 15 16 15 18 21 20 18 16 20 21 21 15 18 16 18 15 11 13 10 10
69 78 82 77 70 62 54 48 43 41 43 46 48 46 41 32 24 17 10 10 14 17 19 21 23 24 23 23 25 23 19 20 20 14 11 17 25 27 28 24 20 22 20
51 70 75 72 71 68 62 48 41 43 47 47 46 44 41 34 25 15 8 7 11 15 20 25 29 30 33 28 24 20 21 23 21 17 12 12 15 24 32 29 29 27 26
Wind_Direction_850mb
204 200 201 200 201 203 203 205 199 192 194 201 196 190 198 214 202 214 219 221 226 242 282 261 292 269 296 281 2 359 328 302 333 355 57 233 227 216 235 263 276 283 270
195 198 199 200 203 205 207 203 191 191 195 199 198 192 191 207 220 207 211 205 209 236 277 287 282 253 276 261 278 330 319 332 331 3 322 241 123 322 271 259 260 269 266
198 198 198 203 207 208 209 206 200 197 196 203 206 205 200 199 200 204 214 225 246 264 297 310 296 277 296 289 307 328 330 320 320 336 6 221 226 285 291 295 285 269 271
204 203 201 205 210 210 212 214 206 208 205 208 214 215 214 206 215 221 243 244 241 253 272 290 288 291 296 300 310 327 324 322 313 294 269 260 258 316 269 264 269 280 269
209 208 208 214 215 213 215 216 217 214 208 209 214 219 225 222 228 220 243 237 224 241 268 274 282 285 282 296 305 314 315 316 311 286 270 256 257 334 276 283 282 279 287
214 215 218 216 219 217 217 217 221 224 220 215 220 229 232 232 237 239 243 236 228 244 261 273 281 277 266 282 297 298 301 298 293 299 278 275 263 333 302 288 288 279 284
215 214 216 217 219 221 219 218 218 223 225 228 228 232 237 237 241 242 245 245 250 252 264 285 292 272 266 275 289 296 299 297 298 285 290 286 283 293 313 286 281 265 277
216 218 221 221 222 223 221 220 220 224 225 222 225 232 236 241 242 245 252 254 254 259 267 272 278 271 266 275 286 293 295 296 294 291 294 301 302 274 288 317 275 258 271
215 222 225 224 224 225 225 224 225 226 225 223 223 226 236 240 242 249 256 258 260 264 268 274 279 280 279 279 284 292 297 298 295 289 297 304 306 292 270 288 277 247 261
219 223 228 226 226 229 226 230 238 235 232 232 233 234 238 242 244 249 256 261 262 266 269 275 283 287 286 287 291 295 298 297 295 288 281 283 299 302 282 285 272 248 257
219 219 225 228 230 223 224 214 231 237 237 239 241 240 242 243 246 250 257 265 269 268 270 273 283 289 290 289 294 300 303 303 305 296 291 282 279 287 290 272 266 243 248
228 222 228 231 230 231 224 219 231 235 237 240 244 244 245 242 243 247 260 269 277 276 276 278 283 288 295 300 300 302 302 306 310 305 293 277 273 284 283 268 260 243 246
222 226 231 230 229 229 230 229 233 242 244 249 248 247 243 241 239 241 255 263 267 271 275 282 291 293 295 295 298 301 302 302 309 311 312 306 271 282 284 261 227 229 232
208 216 223 225 226 227 230 233 235 240 249 248 246 246 240 239 234 230 242 256 265 274 278 285 287 291 293 299 301 300 303 306 304 306 312 311 275 285 281 259 230 219 225
194 199 203 208 214 220 225 228 231 231 234 241 243 241 233 228 224 230 245 263 275 285 288 286 287 293 293 299 297 296 298 300 301 301 299 292 270 287 272 256 229 216 223
197 197 198 198 204 212 218 220 220 228 242 243 236 230 223 222 224 237 248 266 274 284 290 293 293 295 298 297 297 298 294 300 303 299 293 286 273 279 264 246 227 218 229
195 195 198 201 203 205 211 217 224 223 218 220 221 219 220 225 235 245 254 266 281 287 287 293 300 301 304 299 296 293 301 313 315 313 296 289 278 269 244 243 223 211 216
191 191 192 191 191 191 190 198 201 206 205 205 207 210 212 219 232 243 258 269 276 285 293 300 302 306 298 292 298 312 317 319 320 323 307 284 270 259 235 228 225 223 215
197 193 190 188 188 190 194 199 199 199 195 195 197 202 213 222 230 241 250 256 267 285 302 313 322 319 308 299 305 311 321 335 358 336 315 288 261 217 245 221 220 225 213
197 193 188 189 187 188 191 189 187 188 189 194 197 200 205 210 216 223 232 247 270 288 311 326 332 320 305 292 300 317 359 360 3 5 8 6 216 223 195 201 208 229 225
205 192 191 188 184 186 183 184 189 188 186 187 190 191 193 196 198 204 217 242 282 306 307 316 332 342 321 309 305 323 338 342 360 2 12 355 257 190 168 163 154 182 193
208 201 190 187 184 185 186 187 187 186 181 180 179 173 170 170 178 188 198 243 283 299 306 316 352 343 346 346 332 329 336 336 343 358 6 73 127 154 165 197 181 173 199
207 200 193 183 182 185 189 190 188 187 186 182 172 164 163 159 150 137 132 112 15 351 316 300 321 322 304 296 308 316 317 322 322 315 240 165 159 159 156 192 178 172 187
207 196 187 184 182 185 188 201 189 186 187 183 176 167 162 156 146 143 123 56 34 26 18 357 337 331 317 293 279 292 308 317 320 316 264 231 220 216 205 183 194 191 191
203 196 189 186 181 178 183 190 190 194 188 180 170 163 162 162 158 150 112 56 29 22 12 1 345 334 329 328 325 314 317 324 321 307 296 244 237 217 220 201 224 206 206
197 192 188 185 179 178 181 185 183 180 178 173 169 165 162 160 161 151 124 69 25 2 353 349 340 339 332 327 325 319 313 321 320 304 297 265 251 238 224 227 213 210 213